星链-35707(STARLINK-35707)

导读 | 豆包AI

STARLINK-35707是美国太空探索技术公司SpaceX星链星座的一员,于2025年11月19日发射升空。星链计划旨在构建全球卫星互联网,该卫星加入后将进一步完善星座组网能力,提升全球尤其是偏远地区的宽带互联网覆盖与服务能力,助力推进星链全球网络的部署进程。

基本信息
目录编号:
66533
目录名称:
STARLINK-35707
国际标识:
2025-265T
轨道中心:
EARTH
卫星名称:
星链-35707
卫星全名:
星链-35707(STARLINK-35707)
卫星状态:
在轨 (已飞行115 天)
发射日期:
2025-11-19 UTC
国别 :
美国 (US)
星等 :
--
轨道信息
数据来源 国际轨道数据 AOE轨道数据
星历时间 2026-03-14T05:01:55+0800
9小时前
查看轨道信息
2026-03-13T03:00:00+0800
1天前
查看轨道信息
半长轴 6861.126km 6861.222km
偏心率 0.0001618 0.0001298
轨道倾角 43.000° 43.003°
近地点辐角 279.789° 284.565°
升交点赤经 254.300° 260.422°
平近点角 80.278° 223.583°
近地点 481.878km 482.194km
远地点 484.1km 483.976km
周期 94.266分钟 94.267分钟
每日圈数 15.276002 15.275681
详细信息
固有亮度:
5
最大亮度:
2.5
卫星平台:
Starlink V1.0
覆盖范围:
全球
运营商:
太空探索技术公司
运营商所在国:
美国
制造商(研发单位):
太空探索技术公司
制造商所在国:
美国
使用方式:
暂无
卫星简介
Starlink 计划是 SpaceX 推出的全球卫星互联网项目,通过发射低轨道卫星,为全球尤其是偏远地区提供高速、低延迟的互联网服务。自 2019 年起,Starlink 已部署数千颗卫星,旨在缩小全球数字鸿沟,推动互联网普及。该项目还为军事、航空等行业提供通信支持,带来广泛经济效益。
2D轨道图
3D轨道图
轨道高度分析图
轨道倾角分析图
轨道综合分析图
查看轨道综合分析图